Location: Arrington
(35.8681°N, 86.7092°W)
Time: 05:49:57
(UTC+00:00)

SJ-12 - Pass Details

Date: 23 November 2019
Orbit: 570 x 585 km, 97.6° (Epoch: 12 December)

Event Time Altitude Azimuth Distance (km) Brightness Sun altitude
Rises 11:14:22 0° 7° (N) 2,816 7.4 -15.4°
Reaches altitude 10° 11:16:34 10° 3° (N) 1,911 6.5 -15.0°
Maximum altitude 11:20:38 56° 285° (WNW) 694 3.9 -14.2°
Drops below altitude 10° 11:24:39 10° 207° (SSW) 1,892 6.4 -13.4°
Sets 11:26:49 0° 203° (SSW) 2,785 7.3 -13.0°
